Location: Brompton
(51.4000°N, 0.5333°E)
Time: 12:00:21
(UTC+00:00)

Cosmos 1898 Rocket - Pass Details

Date: 27 September 2021
Orbit: 752 x 784 km, 74.0° (Epoch: 17 October)

Event Time Altitude Azimuth Distance (km) Brightness Sun altitude
Exits shadow 20:12:22 60° 114° (ESE) 872 3.4 -23.1°
Maximum altitude 20:12:28 60° 109° (ESE) 872 3.4 -23.1°
Drops below altitude 10° 20:17:38 10° 30° (NNE) 2,322 6.0 -23.8°
Sets 20:20:03 0° 28° (NNE) 3,258 6.8 -24.2°
